Location: ?????
(37.7324°N, 23.9257°E)
Time: 21:21:55
(UTC+00:00)

NOSS 3-2 (C) - Pass Details

Date: 29 November 2020
Orbit: 789 x 1424 km, 63.4° (Epoch: 09 January)

Event Time Altitude Azimuth Distance (km) Brightness Sun altitude
Exits shadow 02:12:41 54° 20° (NNE) 1,551 4.4 -36.3°
Maximum altitude 02:13:56 59° 54° (NE) 1,500 4.5 -36.1°
Drops below altitude 10° 02:22:23 10° 132° (SE) 3,481 6.9 -34.4°
Sets 02:25:27 0° 136° (SE) 4,480 7.5 -33.8°
